weather.gov     
National Weather Service

Terminal Aerodrome Forecast
NWS Homepage
This page is being discontinued on March 12, 2014.
The same data is available at this site. Please update your bookmarks.
Thank you, and we apologize for the inconvenience.
Please send an email to SR-SRH.Webmaster@noaa.gov with any concerns.


Current Version
Previous Version:    01  02  03  04  05  06  07  08  09  10  11  12  13  14  15  16  17  18  19  20  21  22  23  
[Printable]
317
FTUS42 KMLB 012300
TAFLEE
TAF
KLEE 012338Z 0200/0224 14005KT P6SM SCT300
     FM020600 18007KT P6SM SCT020 BKN120 WS015/20034KT
     FM021100 19012G20KT P6SM VCTS SCT025CB BKN040
     FM021400 23017G24KT P6SM VCTS SCT015CB BKN030 OVC050
     FM021800 29015G22KT P6SM VCSH BKN030 OVC050=


U.S. Dept. of Commerce
NOAA National Weather Service
1325 East West Highway
Silver Spring, MD 20910
E-mail: w-nws.webmaster@noaa.gov
Page last modified: May 16, 2007
NATIONAL WEATHER SERVICE: for Safety, for Work, for Fun - FOR LIFE